1494601201.08,34202,15.13,73124.5,9.77,-13.33,-15.07,0,*72
1494601202.33,34203,15.13,73126.8,9.77,-12.53,-14.33,0,*72
1494601203.56,34204,15.13,73126.8,9.81,-12.29,-14.29,0,*7A
1494601204.76,34205,15.13,73126.3,9.83,-13.07,-14.19,0,*77
1494601205.95,34206,15.13,73130.5,9.83,-13.55,-13.69,0,*73
1494601207.23,34207,15.13,73124.8,9.89,-12.71,-12.75,0,*73
1494601208.51,34208,15.13,73130.5,9.89,-11.73,-11.89,0,*7D
1494601209.77,34209,15.13,73128.5,9.91,-11.07,-11.63,0,*72
1494601210.97,34210,15.13,73128.3,9.91,-10.93,-12.03,0,*73
1494601212.2,34211,15.13,73128.0,9.95,-10.31,-12.07,0,*7A
1494601213.45,34212,15.13,73130.8,9.95,-9.57,-12.35,0,*40
1494601214.68,34213,15.13,73132.0,9.99,-8.89,-11.89,0,*4B
1494601215.92,34214,15.13,73134.0,10.01,-7.83,-11.37,0,*75
1494601217.18,34215,15.13,73128.8,10.07,-8.11,-12.47,0,*72
1494601218.42,34216,15.13,73128.3,10.09,-9.45,-13.83,0,*76
1494601219.68,34217,15.13,73130.0,10.11,-8.41,-12.83,0,*7A
1494601220.9,34218,15.13,73132.8,10.17,-8.25,-12.75,0,*78
1494601222.13,34219,15.19,73132.0,10.17,-8.25,-13.33,0,*7A
1494601223.4,34220,15.19,73136.0,10.23,-9.53,-15.35,0,*77
1494601224.63,34221,15.19,73134.5,10.27,-9.27,-15.53,0,*71
1494601225.89,34222,15.13,73134.0,10.27,-11.67,-18.41,0,*41
1494601227.09,34223,15.13,73132.3,10.25,-10.85,-18.07,0,*4D
1494601228.28,34224,15.13,73134.3,10.25,-11.41,-18.83,0,*4F
1494601229.56,34225,15.13,73132.5,10.27,-11.81,-19.61,0,*4D
1494601230.76,34226,15.19,73132.0,10.25,-12.03,-19.51,0,*46
1494601231.97,34227,15.13,73132.0,10.25,-12.89,-20.43,0,*4C
1494601233.2,34228,15.13,73130.0,10.25,-12.25,-19.61,0,*4F
1494601234.42,34229,15.13,73128.0,10.27,-12.03,-19.03,0,*4C
1494601235.64,34230,15.13,73128.8,10.25,-12.15,-19.03,0,*41
1494601236.87,34231,15.19,73130.8,10.25,-11.33,-18.11,0,*45
1494601238.15,34232,15.13,73128.5,10.27,-10.71,-17.55,0,*4C
1494601239.39,34233,15.13,73126.3,10.27,-10.31,-17.35,0,*4F
1494601240.61,34234,15.13,73124.8,10.29,-9.97,-17.03,0,*77
1494601241.84,34235,15.19,73128.3,10.31,-10.97,-18.25,0,*4C
1494601243.09,34236,15.13,73124.8,10.31,-10.23,-17.21,0,*4B
1494601244.38,34237,15.13,73122.5,10.31,-10.63,-17.21,0,*4E
1494601245.6,34238,15.19,73124.0,10.35,-10.93,-16.93,0,*42
1494601246.88,34239,15.13,73122.3,10.35,-11.33,-16.51,0,*46
1494601248.1,34240,15.19,73124.0,10.35,-9.75,-13.73,0,*76
1494601249.32,34241,15.19,73126.0,10.35,-8.55,-12.29,0,*7A
1494601250.58,34242,15.19,73124.5,10.37,-6.39,-10.67,0,*77
1494601251.81,34243,15.19,73120.3,10.39,-5.07,-10.01,0,*76
1494601253.06,34244,15.13,73120.3,10.45,-4.73,-10.45,0,*78
1494601254.31,34245,15.13,73120.5,10.49,-4.53,-10.67,0,*77
1494601255.56,34246,15.19,73120.0,10.53,-5.19,-12.03,0,*70
1494601256.81,34247,15.19,73120.3,10.55,-5.65,-12.57,0,*7D
1494601258.03,34248,15.13,73120.3,10.57,-6.43,-13.11,0,*74
1494601259.26,34249,15.19,73120.3,10.57,-6.43,-12.89,0,*75
1494601260.5,34250,15.13,73116.0,10.61,-5.55,-11.33,0,*7E
1494601261.7,34251,15.13,73118.5,10.63,-5.55,-11.11,0,*7D
1494601262.92,34252,15.19,73122.8,10.67,-5.03,-10.23,0,*79
1494601264.14,34253,15.19,73124.0,10.69,-6.69,-11.85,0,*74
1494601265.39,34254,15.19,73122.3,10.71,-6.81,-11.85,0,*7C
1494601266.62,34255,15.13,73118.3,10.71,-5.39,-10.31,0,*73
1494601267.83,34256,15.19,73120.5,10.71,-4.17,-9.19,0,*4F
1494601269.02,34257,15.19,73124.3,10.73,-3.23,-9.19,0,*4C
1494601270.22,34258,15.19,73124.0,10.75,-2.15,-8.59,0,*44
1494601271.47,34259,15.19,73126.5,10.75,-4.05,-11.37,0,*72
1494601272.69,34260,15.19,73126.5,10.75,-3.79,-11.19,0,*78
1494601273.89,34261,15.19,73120.8,10.77,-2.99,-10.35,0,*7B
1494601275.11,34262,15.19,73126.3,10.77,-2.87,-10.79,0,*7F
1494601276.35,34263,15.19,73126.3,10.79,-3.03,-11.81,0,*7B
1494601277.57,34264,15.19,73124.5,10.77,-3.07,-12.07,0,*7B
1494601278.81,34265,15.19,73126.0,10.77,-2.47,-11.37,0,*7F
1494601280.04,34266,15.19,73126.3,10.77,-1.09,-9.53,0,*4E
1494601281.25,34267,15.19,73128.3,10.77,-0.85,-9.67,0,*7D
1494601282.42,34268,15.19,73130.8,10.81,-0.15,-8.67,0,*73
1494601283.66,34269,15.19,73126.3,10.83,0.33,-7.95,0,*5B
1494601284.87,34270,15.19,73128.0,10.89,1.01,-6.97,0,*6A
1494601286.1,34271,15.13,73126.8,10.91,0.55,-7.19,0,*55
1494601287.35,34272,15.19,73126.0,10.95,-1.01,-8.89,0,*49
1494601288.59,34273,15.19,73130.5,10.95,-1.29,-9.15,0,*46
1494601289.8,34274,15.19,73128.0,10.97,-0.97,-8.45,0,*73
1494601291.0,34275,15.19,73126.8,10.97,0.59,-6.55,0,*52
1494601292.22,34276,15.19,73128.5,11.01,1.05,-5.81,0,*6D
1494601293.48,34277,15.19,73130.5,11.07,1.33,-5.51,0,*62
1494601294.75,34278,15.19,73128.5,11.11,2.09,-4.73,0,*61
1494601295.97,34279,15.19,73126.5,11.13,2.61,-4.85,0,*65
1494601297.24,34280,15.19,73128.0,11.19,1.43,-7.39,0,*6E
1494601298.47,34281,15.19,73124.8,11.19,0.63,-8.25,0,*5E
1494601299.72,34282,15.19,73124.8,11.19,0.87,-8.25,0,*57
1494601300.94,34283,15.19,73124.3,11.21,2.09,-6.69,0,*6F
1494601302.18,34284,15.19,73124.3,11.25,1.17,-7.57,0,*6C
1494601303.45,34285,15.19,73122.8,11.27,1.47,-6.97,0,*67
1494601304.67,34286,15.19,73122.0,11.29,1.01,-7.95,0,*6B
1494601305.89,34287,15.19,73122.5,11.31,1.01,-8.29,0,*6B
1494601307.14,34288,15.19,73120.0,11.31,1.25,-7.87,0,*69
1494601308.42,34289,15.19,73118.3,11.37,1.21,-7.91,0,*6D
1494601309.62,34290,15.19,73122.3,11.35,0.33,-9.05,0,*56
1494601310.89,34291,15.19,73124.8,11.37,0.37,-9.37,0,*50
1494601312.15,34292,15.19,73126.5,11.41,0.87,-9.41,0,*58
1494601313.37,34293,15.19,73124.8,11.43,1.17,-9.27,0,*63
1494601314.61,34294,15.19,73124.3,11.45,0.91,-9.89,0,*59
1494601315.85,34295,15.19,73124.0,11.47,0.17,-10.63,0,*68
1494601317.12,34296,15.19,73128.8,11.49,-0.85,-11.89,0,*46
1494601318.35,34297,15.19,73126.0,11.51,-1.21,-12.15,0,*77
1494601319.58,34298,15.19,73126.5,11.53,-2.35,-12.93,0,*72
1494601320.78,34299,15.19,73124.3,11.59,-2.79,-13.19,0,*72
1494601322.02,34300,15.19,73124.0,11.63,-2.63,-12.21,0,*7B
1494601323.24,34301,15.19,73122.8,11.63,-2.43,-11.33,0,*78
1494601324.49,34302,15.19,73124.0,11.67,-3.19,-11.73,0,*75
1494601325.77,34303,15.19,73124.0,11.71,-3.43,-11.51,0,*7C
1494601327.0,34304,15.19,73124.3,11.71,-4.57,-12.47,0,*7D
1494601328.25,34305,15.19,73126.0,11.71,-4.45,-11.55,0,*7F
1494601329.47,34306,15.19,73120.3,11.75,-2.91,-9.67,0,*4F
1494601330.71,34307,15.19,73122.0,11.79,-3.31,-10.19,0,*78
1494601331.96,34308,15.19,73122.3,11.79,-3.39,-9.83,0,*44
1494601333.2,34309,15.19,73120.5,11.81,-2.55,-8.11,0,*43
1494601334.45,34310,15.19,73116.3,11.79,-1.25,-6.63,0,*43
1494601335.64,34311,15.19,73116.5,11.85,-0.37,-6.73,0,*72
1494601336.84,34312,15.19,73118.0,11.85,-0.73,-7.83,0,*7F
1494601338.04,34313,15.19,73116.3,11.89,-0.29,-8.03,0,*7A
1494601339.27,34314,15.19,73116.5,11.91,-0.15,-6.63,0,*73
1494601340.54,34315,15.19,73118.0,11.95,0.47,-5.61,0,*5D
1494601341.72,34316,15.19,73116.8,11.99,0.05,-6.89,0,*61
1494601342.96,34317,15.19,73120.5,12.01,-0.19,-7.01,0,*73
1494601344.18,34318,15.19,73120.5,12.05,-1.21,-7.53,0,*45
1494601345.4,34319,15.19,73118.5,12.07,-1.67,-7.91,0,*4A
1494601346.61,34320,15.19,73120.8,12.09,-2.99,-8.89,0,*4A
1494601347.85,34321,15.19,73122.3,12.09,-4.73,-9.93,0,*43
1494601349.07,34322,15.19,73118.8,12.07,-4.01,-8.55,0,*40
1494601350.28,34323,15.19,73120.3,12.07,-2.87,-6.97,0,*49
1494601351.53,34324,15.19,73122.8,12.09,-2.55,-6.43,0,*46
1494601352.74,34325,15.19,73120.0,12.07,-3.11,-6.97,0,*41
1494601353.97,34326,15.19,73120.0,12.11,-2.95,-6.19,0,*4E
1494601355.19,34327,15.19,73118.8,12.09,-1.67,-3.95,0,*49
1494601356.39,34328,15.19,73122.3,12.09,-0.73,-3.23,0,*7F
1494601357.65,34329,15.19,73120.8,12.09,0.25,-2.67,0,*51
1494601358.88,34330,15.19,73116.3,12.13,-0.27,-4.45,0,*7B
1494601360.15,34331,15.19,73122.5,12.13,-0.27,-5.27,0,*7F
1494601361.36,34332,15.19,73120.0,12.15,-0.15,-5.73,0,*7A
1494601362.63,34333,15.19,73120.5,12.17,-1.95,-7.35,0,*40
1494601363.85,34334,15.19,73122.3,12.19,-2.79,-7.77,0,*4E
1494601365.12,34335,15.19,73120.5,12.21,-2.03,-6.27,0,*4D
1494601366.33,34336,15.19,73120.5,12.23,-1.63,-5.81,0,*46
1494601367.59,34337,15.19,73118.8,12.27,-1.35,-5.27,0,*4C
1494601368.78,34338,15.19,73118.3,12.27,-0.61,-4.13,0,*75
1494601370.03,34339,15.19,73120.3,12.29,-0.85,-3.71,0,*73
1494601371.26,34340,15.19,73120.0,12.33,-0.41,-2.95,0,*75
1494601372.48,34341,15.19,73124.0,12.35,-0.19,-2.63,0,*76
1494601373.65,34342,15.19,73124.8,12.39,0.01,-2.43,0,*6F
1494601374.86,34343,15.19,73124.8,12.39,-0.23,-3.23,0,*74
1494601376.08,34344,15.19,73122.5,12.41,-0.07,-3.55,0,*4B
1494601377.27,34345,15.19,73122.3,12.43,-0.19,-4.05,0,*75
1494601378.53,34346,15.19,73124.3,12.45,-1.25,-5.07,0,*4D
1494601379.78,34347,15.19,73122.5,12.45,-1.35,-4.65,0,*48
1494601381.0,34348,15.19,73120.0,12.49,-0.77,-3.27,0,*7D
1494601382.23,34349,15.19,73122.8,12.49,0.25,-1.33,0,*51
1494601383.46,34350,15.19,73126.0,12.51,0.87,-0.23,0,*68
1494601384.72,34351,15.19,73120.0,12.57,1.55,0.55,0,*7D
1494601385.95,34352,15.19,73124.8,12.61,1.97,0.67,0,*74
1494601387.17,34353,15.19,73126.8,12.65,2.95,1.09,0,*49
1494601388.38,34354,15.19,73124.0,12.65,3.11,0.09,0,*42
1494601389.57,34355,15.19,73122.3,12.69,3.25,-0.77,0,*5C
1494601390.78,34356,15.19,73124.3,12.73,4.11,-1.09,0,*6C
1494601391.99,34357,15.19,73124.0,12.77,4.01,-2.27,0,*67
1494601393.21,34358,15.19,73124.0,12.81,3.15,-3.75,0,*65
1494601394.45,34359,15.19,73126.3,12.83,2.43,-3.83,0,*6D
1494601395.66,34360,15.19,73124.8,12.85,2.43,-2.95,0,*67
1494601396.9,34361,15.19,73126.5,12.87,2.89,-2.23,0,*6F
1494601398.14,34362,15.19,73126.5,12.91,3.15,-1.55,0,*6D
1494601399.35,34363,15.19,73124.8,12.89,1.93,-2.79,0,*64
1494601400.61,34364,15.19,73128.5,12.91,1.33,-3.47,0,*6C
1494601401.86,34365,15.19,73124.5,12.91,0.55,-3.51,0,*5B
1494601403.1,34366,15.19,73128.3,12.91,0.79,-2.99,0,*53
1494601404.32,34367,15.19,73124.5,12.89,1.09,-2.39,0,*67
1494601405.56,34368,15.19,73132.8,12.91,1.47,-2.83,0,*6A
1494601406.81,34369,15.19,73130.0,12.91,1.59,-3.47,0,*6D
1494601408.03,34370,15.19,73128.3,12.91,-0.81,-7.23,0,*7A
1494601409.26,34371,15.19,73130.3,12.91,-0.23,-6.73,0,*77
1494601410.52,34372,15.19,73124.5,12.91,0.29,-5.89,0,*55
1494601411.73,34373,15.19,73126.8,12.89,-0.37,-7.27,0,*79
1494601412.97,34374,15.19,73126.8,12.87,-0.27,-7.15,0,*70
1494601414.22,34375,15.19,73126.5,12.87,-1.17,-7.31,0,*45
1494601415.4,34376,15.19,73126.8,12.85,-0.65,-6.13,0,*71
1494601416.62,34377,15.19,73126.8,12.85,-0.53,-5.15,0,*70
1494601417.83,34378,15.19,73128.3,12.83,-0.37,-4.41,0,*7B
1494601419.02,34379,15.19,73128.3,12.81,-0.49,-4.13,0,*76
1494601420.19,34380,15.19,73126.8,12.81,0.01,-3.27,0,*61
1494601421.41,34381,15.19,73128.3,12.79,0.37,-3.23,0,*56
1494601422.63,34382,15.19,73130.8,12.77,0.51,-3.43,0,*5D
1494601423.82,34383,15.19,73126.0,12.77,-0.77,-4.45,0,*74
1494601425.01,34384,15.19,73126.3,12.73,-0.45,-3.95,0,*7C
1494601426.2,34385,15.19,73128.0,12.69,-0.65,-4.37,0,*7B
1494601427.42,34386,15.19,73124.8,12.65,-0.93,-4.61,0,*7E
1494601428.64,34387,15.19,73126.8,12.59,-2.71,-6.09,0,*42
1494601429.88,34388,15.19,73124.3,12.55,-2.63,-5.73,0,*4C
1494601431.09,34389,15.19,73128.3,12.51,-0.85,-4.09,0,*7F
1494601432.35,34390,15.19,73128.8,12.45,-1.13,-4.57,0,*47
1494601433.59,34391,15.19,73128.0,12.41,-1.05,-4.45,0,*46
1494601434.84,34392,15.19,73130.0,12.37,-1.09,-4.37,0,*4D
1494601436.05,34393,15.19,73126.5,12.33,-0.53,-3.35,0,*73
1494601437.29,34394,15.25,73130.8,12.33,0.33,-2.31,0,*5A
1494601438.54,34395,15.19,73126.8,12.29,0.63,-1.99,0,*54
1494601439.75,34396,15.19,73128.3,12.29,-0.61,-3.87,0,*75
1494601440.93,34397,15.19,73130.3,12.23,-0.61,-4.17,0,*70
1494601442.2,34398,15.19,73128.3,12.21,-1.43,-6.19,0,*40
1494601443.43,34399,15.19,73128.8,12.15,-1.29,-5.85,0,*4C
1494601444.64,34400,15.19,73132.5,12.15,-0.73,-5.73,0,*7C
1494601445.86,34401,15.19,73128.8,12.11,-0.77,-6.63,0,*7F
1494601447.07,34402,15.19,73130.3,12.07,-2.03,-8.75,0,*43
1494601448.31,34403,15.19,73128.8,12.01,-2.15,-8.81,0,*48
1494601449.52,34404,15.25,73128.3,11.99,-3.39,-10.89,0,*73
1494601450.73,34405,15.19,73124.3,11.97,-4.45,-12.25,0,*74
1494601451.97,34406,15.25,73128.5,11.93,-4.93,-12.65,0,*7C
1494601453.2,34407,15.19,73126.8,11.87,-5.51,-12.47,0,*77
1494601454.42,34408,15.25,73126.5,11.85,-6.77,-13.79,0,*71
1494601455.7,34409,15.25,73130.5,11.79,-6.93,-12.53,0,*70
1494601456.91,34410,15.19,73128.5,11.73,-6.43,-10.97,0,*75
1494601458.14,34411,15.19,73126.8,11.69,-7.83,-11.93,0,*77
1494601459.37,34412,15.25,73126.3,11.65,-6.97,-10.05,0,*72
1494601460.61,34413,15.19,73128.5,11.61,-6.47,-9.15,0,*43
1494601461.86,34414,15.19,73124.8,11.57,-5.85,-8.41,0,*4C
1494601463.13,34415,15.19,73128.5,11.57,-5.15,-7.43,0,*49
1494601464.35,34416,15.25,73128.5,11.51,-5.55,-8.03,0,*43
1494601465.55,34417,15.25,73128.5,11.47,-5.35,-7.49,0,*42
1494601466.78,34418,15.25,73134.3,11.47,-4.33,-5.89,0,*44
1494601468.0,34419,15.25,73134.0,11.43,-4.61,-6.23,0,*45
1494601469.22,34420,15.25,73134.0,11.43,-4.13,-5.77,0,*48
1494601470.47,34421,15.25,73134.8,11.43,-3.51,-5.15,0,*4C
1494601471.7,34422,15.25,73134.0,11.45,-3.15,-4.61,0,*4B
1494601472.89,34423,15.19,73130.5,11.43,-3.19,-4.33,0,*47
1494601474.12,34424,15.19,73130.3,11.43,-3.47,-4.25,0,*4C
1494601475.34,34425,15.25,73128.5,11.41,-3.03,-3.39,0,*45
1494601476.59,34426,15.25,73134.0,11.43,-2.67,-2.55,0,*4C
1494601477.8,34427,15.25,73134.8,11.43,-2.43,-1.95,0,*44
1494601479.0,34428,15.19,73128.5,11.43,-2.99,-2.43,0,*44
1494601480.23,34429,15.25,73128.5,11.43,-2.11,-1.71,0,*47
1494601481.48,34430,15.19,73126.5,11.41,-2.11,-1.75,0,*49
1494601482.67,34431,15.19,73128.3,11.39,-1.59,-1.59,0,*46
1494601483.86,34432,15.25,73130.3,11.39,-0.65,-0.53,0,*40
1494601485.14,34433,15.25,73130.0,11.37,-1.05,-1.01,0,*4E
1494601486.36,34434,15.19,73126.5,11.37,-0.53,-0.37,0,*4F
1494601487.57,34435,15.25,73130.5,11.35,-0.15,0.17,0,*61
1494601488.82,34436,15.25,73128.0,11.31,0.63,0.79,0,*42
1494601490.03,34437,15.19,73128.0,11.31,1.05,1.05,0,*48
1494601491.29,34438,15.25,73128.8,11.31,0.55,0.51,0,*43
1494601492.55,34439,15.25,73132.0,11.31,0.87,0.79,0,*47
1494601493.79,34440,15.25,73128.8,11.31,1.05,0.91,0,*74
1494601495.03,34441,15.25,73134.5,11.29,1.43,1.21,0,*44
1494601496.26,34442,15.25,73130.5,11.29,1.85,1.71,0,*48
1494601497.49,34443,15.19,73126.0,11.29,1.43,1.13,0,*47
1494601498.73,34444,15.25,73128.3,11.29,1.43,1.13,0,*40
1494601499.98,34445,15.25,73130.0,11.27,0.83,0.47,0,*42
1494601501.22,34446,15.25,73130.5,11.29,-0.23,-0.23,0,*47
1494601502.48,34447,15.25,73130.3,11.23,0.91,0.83,0,*4F
1494601503.71,34448,15.25,73130.8,11.23,0.67,0.43,0,*45
1494601504.94,34449,15.25,73130.5,11.21,0.79,0.79,0,*40
1494601506.2,34450,15.25,73128.0,11.19,0.87,0.75,0,*4E
1494601507.46,34451,15.25,73128.0,11.19,1.47,1.43,0,*46
1494601508.7,34452,15.25,73134.8,11.17,1.33,1.29,0,*44
1494601509.95,34453,15.25,73130.5,11.17,1.29,1.29,0,*4E
1494601511.18,34454,15.25,73134.8,11.17,1.67,1.51,0,*4C
1494601512.39,34455,15.19,73130.0,11.17,1.79,1.59,0,*4A
1494601513.65,34456,15.25,73130.3,11.15,1.71,1.51,0,*4B
1494601514.89,34457,15.19,73128.5,11.13,1.85,1.67,0,*42
1494601516.13,34458,15.25,73134.5,11.15,2.27,2.13,0,*40
1494601517.34,34459,15.25,73128.8,11.13,2.51,2.31,0,*46
1494601518.59,34460,15.25,73130.8,11.15,2.01,1.79,0,*40
1494601519.84,34461,15.25,73132.3,11.15,2.13,1.89,0,*4D
1494601521.09,34462,15.25,73136.8,11.15,2.65,2.51,0,*49
1494601522.33,34463,15.25,73134.3,11.15,2.77,2.65,0,*4C
1494601523.6,34464,15.25,73128.5,11.15,2.55,2.43,0,*4F
1494601524.84,34465,15.25,73130.8,11.15,2.65,2.55,0,*4A
1494601526.04,34466,15.25,73132.0,11.17,1.05,0.95,0,*70
1494601527.29,34467,15.25,73128.5,11.15,1.17,1.05,0,*48
1494601528.55,34468,15.25,73128.8,11.15,1.43,1.17,0,*45
1494601529.77,34469,15.25,73128.0,11.13,1.85,1.79,0,*40
1494601531.0,34470,15.25,73128.3,11.13,1.63,1.59,0,*42
1494601532.26,34471,15.25,73130.8,11.11,2.01,2.01,0,*48
1494601533.52,34472,15.25,73128.8,11.11,1.97,1.89,0,*44
1494601534.79,34473,15.25,73130.8,11.11,1.29,1.25,0,*46
1494601536.06,34474,15.25,73134.3,11.11,1.25,1.13,0,*48
1494601537.3,34475,15.25,73130.0,11.11,1.13,1.01,0,*4F
1494601538.58,34476,15.25,73124.3,11.07,1.33,1.33,0,*48
1494601539.82,34477,15.25,73134.0,11.05,1.33,1.43,0,*4C
1494601541.09,34478,15.25,73130.5,11.03,1.17,1.17,0,*42
1494601542.34,34479,15.25,73130.3,11.03,1.43,1.43,0,*43
1494601543.62,34480,15.25,73132.3,11.03,1.21,1.21,0,*45
1494601544.83,34481,15.25,73130.3,11.01,1.01,1.13,0,*45
1494601546.04,34482,15.25,73128.8,11.01,1.41,1.47,0,*43
1494601547.28,34483,15.25,73130.5,10.99,1.47,1.51,0,*43
1494601548.5,34484,15.25,73132.3,10.97,1.47,1.47,0,*4D
1494601549.7,34485,15.25,73132.3,10.95,1.79,1.75,0,*42
1494601550.95,34486,15.25,73130.5,10.95,1.89,2.01,0,*4E
1494601552.19,34487,15.25,73134.0,10.97,2.17,2.17,0,*4E
1494601553.44,34488,15.25,73130.8,10.95,1.93,1.93,0,*43
1494601554.66,34489,15.25,73130.8,10.95,1.83,1.89,0,*48
1494601555.92,34490,15.25,73132.0,10.95,1.21,1.29,0,*42
1494601557.11,34491,15.25,73134.0,10.93,1.43,1.41,0,*4F
1494601558.36,34492,15.25,73128.0,10.91,1.43,1.51,0,*4F
1494601559.53,34493,15.25,73126.8,10.89,2.35,2.35,0,*44
1494601560.75,34494,15.25,73130.3,10.89,1.93,1.97,0,*47
1494601561.99,34495,15.25,73130.8,10.89,1.21,1.09,0,*48
1494601563.19,34496,15.25,73128.5,10.89,1.01,0.91,0,*79
1494601564.4,34497,15.25,73126.5,10.85,0.95,0.95,0,*4C
1494601565.62,34498,15.25,73126.8,10.85,1.71,1.71,0,*43
1494601566.84,34499,15.25,73128.3,10.81,1.43,1.43,0,*46
1494601568.07,34500,15.25,73130.8,10.83,0.37,0.37,0,*45
1494601569.29,34501,15.25,73128.5,10.81,0.55,0.47,0,*45
1494601570.5,34502,15.25,73130.0,10.77,0.41,0.37,0,*4D
1494601571.74,34503,15.25,73128.3,10.75,0.37,0.25,0,*4C
1494601572.91,34504,15.25,73128.3,10.73,0.01,-0.11,0,*52
1494601574.13,34505,15.25,73126.8,10.71,0.55,0.43,0,*4A
1494601575.36,34506,15.25,73128.5,10.71,0.67,0.67,0,*4E
1494601576.6,34507,15.25,73128.5,10.69,1.29,1.33,0,*4D
1494601577.81,34508,15.25,73130.0,10.69,1.13,1.01,0,*4A
1494601579.03,34509,15.25,73128.5,10.69,0.83,0.79,0,*4D
1494601580.25,34510,15.25,73124.0,10.63,0.75,0.71,0,*4E
1494601581.49,34511,15.25,73130.8,10.63,1.21,1.09,0,*41
1494601582.73,34512,15.25,73128.3,10.61,0.51,0.41,0,*4B
1494601583.91,34513,15.25,73124.3,10.59,-0.07,-0.15,0,*73
1494601585.15,34514,15.25,73128.3,10.57,0.29,0.17,0,*44
1494601586.38,34515,15.25,73128.5,10.55,1.17,1.25,0,*4B
1494601587.63,34516,15.25,73130.3,10.53,1.71,1.67,0,*48
1494601588.84,34517,15.25,73130.5,10.55,1.41,1.37,0,*49
1494601590.09,34518,15.25,73128.0,10.53,0.83,0.75,0,*48
1494601591.26,34519,15.25,73126.5,10.51,0.05,0.05,0,*42
1494601592.43,34520,15.25,73122.3,10.47,0.01,-0.11,0,*53
1494601593.65,34521,15.25,73120.8,10.47,0.75,0.67,0,*4D
1494601594.89,34522,15.25,73126.8,10.45,0.79,0.79,0,*4F
1494601596.14,34523,15.25,73124.5,10.41,0.63,0.51,0,*4B
1494601597.37,34524,15.25,73124.3,10.41,0.25,0.17,0,*4C
1494601598.62,34525,15.25,73128.0,10.37,0.83,0.79,0,*48
1494601599.84,34526,15.25,73128.0,10.37,0.95,0.97,0,*4C
1494601601.09,34527,15.25,73122.0,10.35,0.79,0.83,0,*48
1494601602.32,34528,15.25,73124.0,10.33,0.91,0.91,0,*44
1494601603.53,34529,15.25,73126.5,10.33,0.29,0.33,0,*4E
1494601604.77,34530,15.25,73124.0,10.31,0.63,0.63,0,*4F
1494601605.96,34531,15.25,73128.5,10.29,0.21,0.09,0,*7D
1494601607.15,34532,15.25,73124.3,10.27,0.43,0.43,0,*4A
1494601608.4,34533,15.25,73126.3,10.27,0.41,0.51,0,*4A
1494601609.6,34534,15.25,73126.0,10.25,0.91,1.01,0,*76
1494601610.82,34535,15.25,73126.3,10.21,0.59,0.59,0,*4B
1494601612.04,34536,15.25,73126.3,10.21,0.41,0.51,0,*49
1494601613.26,34537,15.25,73122.5,10.15,0.43,0.51,0,*4D
1494601614.48,34538,15.25,73122.8,10.15,0.51,0.43,0,*42
1494601615.72,34539,15.25,73126.3,10.13,1.33,1.33,0,*46
1494601616.96,34540,15.25,73128.3,10.11,0.63,0.67,0,*4E
1494601618.2,34541,15.25,73126.3,10.11,1.09,1.41,0,*47
1494601619.46,34542,15.25,73126.3,10.11,1.25,1.37,0,*4B
1494601620.73,34543,15.25,73126.8,10.11,1.37,1.51,0,*49
1494601621.96,34544,15.25,73124.5,10.09,0.55,0.55,0,*47
1494601623.21,34545,15.25,73126.5,10.07,0.71,0.63,0,*4B
1494601624.43,34546,15.25,73130.3,10.05,0.21,0.29,0,*41
1494601625.62,34547,15.25,73126.5,10.05,-0.07,-0.19,0,*77
1494601626.79,34548,15.25,73126.0,9.99,-0.53,-0.61,0,*7B
1494601628.0,34549,15.25,73130.5,9.99,0.33,0.33,0,*7B
1494601629.22,34550,15.25,73130.0,9.95,0.47,0.33,0,*7C
1494601630.46,34551,15.25,73128.8,9.93,0.29,0.21,0,*70
1494601631.68,34552,15.25,73130.0,9.91,0.55,0.55,0,*79
1494601632.91,34553,15.25,73128.3,9.89,1.41,1.51,0,*70
1494601634.13,34554,15.25,73130.8,9.91,1.71,1.71,0,*7F
1494601635.38,34555,15.25,73130.8,9.89,1.63,1.59,0,*7E
1494601636.6,34556,15.25,73134.0,9.89,1.41,1.47,0,*72
1494601637.82,34557,15.25,73130.0,9.89,1.83,1.89,0,*7F
1494601639.05,34558,15.25,73128.0,9.89,1.13,1.05,0,*7D
1494601640.27,34559,15.25,73130.0,9.87,1.43,1.43,0,*75
1494601641.5,34560,15.25,73128.0,9.87,2.05,2.05,0,*7F
1494601642.7,34561,15.25,73126.5,9.87,2.27,2.21,0,*78
1494601643.92,34562,15.25,73130.5,9.87,1.93,1.93,0,*7D
1494601645.13,34563,15.25,73126.3,9.85,1.79,1.79,0,*7E
1494601646.37,34564,15.25,73126.3,9.85,1.93,1.93,0,*79
1494601647.59,34565,15.25,73128.5,9.87,1.67,1.67,0,*7A
1494601648.77,34566,15.25,73128.8,9.87,1.83,1.83,0,*79
1494601650.03,34567,15.25,73126.5,9.85,1.29,1.33,0,*71
1494601651.28,34568,15.25,73124.8,9.85,0.83,0.59,0,*72
1494601652.49,34569,15.25,73130.3,9.83,0.33,0.25,0,*75
1494601653.72,34570,15.25,73130.5,9.81,0.67,0.55,0,*79
1494601654.97,34571,15.25,73130.3,9.81,1.25,1.29,0,*75
1494601656.18,34572,15.25,73130.5,9.79,1.63,1.75,0,*7A
1494601657.4,34573,15.25,73128.3,9.77,1.75,1.93,0,*7A
1494601658.59,34574,15.25,73126.3,9.79,1.79,1.89,0,*74
1494601659.8,34575,15.25,73128.8,9.79,1.71,1.75,0,*7E
1494601661.02,34576,15.25,73126.0,9.77,1.83,1.97,0,*72
1494601662.22,34577,15.25,73128.0,9.79,2.31,2.47,0,*79
1494601663.47,34578,15.25,73126.3,9.77,2.39,2.69,0,*7C
1494601664.71,34579,15.25,73124.8,9.77,2.39,2.69,0,*7D
1494601665.96,34580,15.25,73126.8,9.77,2.39,2.59,0,*78
1494601667.19,34581,15.25,73130.5,9.77,2.05,2.27,0,*7F
1494601668.44,34582,15.25,73124.0,9.77,1.97,2.05,0,*74
1494601669.68,34583,15.25,73126.5,9.77,1.93,2.09,0,*7D
1494601670.91,34584,15.25,73126.8,9.77,1.71,1.75,0,*7E
1494601672.16,34585,15.25,73128.0,9.77,1.97,2.17,0,*70
1494601673.42,34586,15.25,73128.8,9.77,2.05,2.17,0,*7B
1494601674.67,34587,15.25,73126.8,9.73,2.17,2.01,0,*7A
1494601675.89,34588,15.25,73128.5,9.71,1.89,1.89,0,*70
1494601677.14,34589,15.25,73128.0,9.73,1.93,2.01,0,*7B
1494601678.34,34590,15.25,73128.0,9.71,1.71,1.79,0,*71
1494601679.56,34591,15.25,73128.8,9.69,1.79,1.89,0,*7E
1494601680.81,34592,15.25,73128.8,9.73,1.93,2.01,0,*71
1494601681.99,34593,15.25,73130.0,9.71,1.83,1.83,0,*7A
1494601683.22,34594,15.25,73128.5,9.71,1.17,1.09,0,*72
1494601684.43,34595,15.25,73132.5,9.67,0.55,0.63,0,*7E
1494601685.64,34596,15.25,73134.0,9.67,1.05,1.13,0,*7F
1494601686.86,34597,15.25,73132.3,9.67,0.79,0.75,0,*75
1494601688.04,34598,15.25,73134.0,9.63,0.21,0.01,0,*40
1494601689.22,34599,15.25,73128.3,9.59,-0.53,-0.57,0,*7E
1494601690.43,34600,15.25,73130.5,9.59,-0.19,-0.23,0,*70
1494601691.63,34601,15.25,73132.3,9.55,0.17,0.13,0,*70
1494601692.84,34602,15.25,73132.8,9.55,0.59,0.47,0,*78
1494601694.08,34603,15.25,73132.0,9.49,0.71,0.67,0,*7C
1494601695.33,34604,15.25,73132.8,9.49,1.25,1.25,0,*7C
1494601696.55,34605,15.25,73132.3,9.47,0.91,0.95,0,*77
1494601697.81,34606,15.25,73132.3,9.45,1.21,1.13,0,*73
1494601699.07,34607,15.25,73134.3,9.45,1.33,1.25,0,*74
1494601700.25,34608,15.25,73134.0,9.43,1.75,1.83,0,*73
1494601701.43,34609,15.25,73134.3,9.43,1.83,1.75,0,*72
1494601702.66,34610,15.25,73134.0,9.43,1.97,1.93,0,*77
1494601703.92,34611,15.25,73132.8,9.41,1.37,1.37,0,*70
1494601705.16,34612,15.25,73138.0,9.43,1.25,1.37,0,*72
1494601706.4,34613,15.25,73134.0,9.41,0.59,0.59,0,*72
1494601707.63,34614,15.25,73136.3,9.39,0.71,0.71,0,*7A
1494601708.85,34615,15.25,73134.3,9.39,0.95,1.05,0,*43
1494601710.06,34616,15.25,73134.3,9.37,0.91,0.95,0,*72
1494601711.29,34617,15.25,73136.3,9.37,1.17,1.13,0,*73
1494601712.54,34618,15.25,73136.5,9.35,1.13,1.29,0,*73
1494601713.74,34619,15.25,73136.3,9.33,1.41,1.47,0,*7B
1494601714.97,34620,15.25,73136.8,9.33,1.29,1.29,0,*77
1494601716.2,34621,15.25,73136.8,9.33,1.85,1.85,0,*76
1494601717.42,34622,15.25,73138.5,9.33,1.47,1.47,0,*75